Location: Drouwen
(52.9559°N, 6.7974°E)
Time: 13:18:35
(UTC+00:00)

PSLV R/B - Pass Details

Date: 15 May 2026
Orbit: 586 x 678 km, 97.9° (Epoch: 11 June)

Event Time Altitude Azimuth Distance (km) Brightness Sun altitude
Rises 23:09:20 0° 15° (NNE) 2,871 8.3 -17.9°
Reaches altitude 10° 23:11:30 10° 16° (NNE) 1,975 7.2 -17.9°
Maximum altitude 23:15:48 82° 105° (ESE) 634 3.5 -17.9°
Enters shadow 23:17:29 37° 188° (S) 971 4.0 -17.9°
